• In Czech Republic
  • List of Countries
  • For 7 days
  • Water Temperature
  • Satellite Maps
  • Weather Map
  • Weather Widgets
  • user-avatar
    Login

    Hourly Weather Bihać

    Today, 25 February, Sunday

    Time Temperature Precipitation Wind Pressure Humidity
    00:00 -12°C° 0.1 mm 7 mps 707 mmHg 85%
    01:00 -12°C° 0 mm 5 mps 707 mmHg 86%
    02:00 -14°C° 0 mm 6 mps 706 mmHg 86%
    03:00 -15°C° 0 mm 6 mps 706 mmHg 86%
    04:00 -17°C° 0 mm 7 mps 706 mmHg 86%
    05:00 -15°C° 0.1 mm 7 mps 706 mmHg 85%
    06:00 -15°C° 0.1 mm 7 mps 706 mmHg 85%
    07:00 -15°C° 0 mm 7 mps 706 mmHg 85%
    08:00 -14°C° 0.1 mm 7 mps 706 mmHg 84%
    09:00 -13°C° 0.1 mm 7 mps 707 mmHg 83%
    10:00 -12°C° 0.1 mm 8 mps 707 mmHg 82%
    11:00 -12°C° 0.1 mm 8 mps 707 mmHg 82%
    12:00 -11°C° 0.1 mm 8 mps 707 mmHg 81%
    13:00 -9°C° 0 mm 7 mps 707 mmHg 79%
    14:00 -11°C° 0.1 mm 7 mps 707 mmHg 80%
    15:00 -11°C° 0.1 mm 7 mps 706 mmHg 80%
    16:00 -12°C° 0.1 mm 8 mps 706 mmHg 81%
    17:00 -13°C° 0.1 mm 8 mps 706 mmHg 81%
    18:00 -13°C° 0.1 mm 8 mps 706 mmHg 82%
    19:00 -15°C° 0.1 mm 8 mps 706 mmHg 82%
    20:00 -15°C° 0.1 mm 8 mps 706 mmHg 82%
    21:00 -15°C° 0.1 mm 8 mps 705 mmHg 82%
    22:00 -15°C° 0.1 mm 8 mps 705 mmHg 83%
    23:00 -16°C° 0.1 mm 8 mps 705 mmHg 82%

    Tomorrow, 26 February, Monday

    Time Temperature Precipitation Wind Pressure Humidity
    00:00 -16°C° 0.1 mm 8 mps 705 mmHg 82%
    01:00 -16°C° 0.1 mm 9 mps 704 mmHg 82%
    02:00 -17°C° 0.1 mm 8 mps 704 mmHg 82%
    03:00 -17°C° 0.1 mm 8 mps 703 mmHg 82%
    04:00 -17°C° 0.1 mm 8 mps 703 mmHg 82%
    05:00 -18°C° 0.1 mm 8 mps 703 mmHg 82%
    06:00 -18°C° 0.1 mm 8 mps 703 mmHg 83%
    07:00 -18°C° 0.1 mm 8 mps 703 mmHg 84%
    08:00 -17°C° 0.2 mm 8 mps 703 mmHg 83%
    09:00 -17°C° 0.2 mm 8 mps 703 mmHg 83%
    10:00 -16°C° 0.2 mm 8 mps 702 mmHg 83%
    11:00 -16°C° 0.3 mm 8 mps 702 mmHg 83%
    12:00 -15°C° 0.3 mm 8 mps 702 mmHg 84%
    13:00 -15°C° 0.3 mm 8 mps 702 mmHg 84%
    14:00 -15°C° 0.4 mm 8 mps 701 mmHg 85%
    15:00 -15°C° 0.4 mm 8 mps 701 mmHg 86%
    16:00 -15°C° 0.4 mm 8 mps 701 mmHg 86%
    17:00 -15°C° 0.3 mm 8 mps 701 mmHg 86%
    18:00 -15°C° 0.3 mm 8 mps 701 mmHg 86%
    19:00 -15°C° 0.3 mm 8 mps 701 mmHg 86%
    20:00 -15°C° 0.3 mm 8 mps 701 mmHg 85%
    21:00 -15°C° 0.3 mm 8 mps 701 mmHg 85%
    22:00 -15°C° 0.3 mm 8 mps 701 mmHg 85%
    23:00 -14°C° 0.2 mm 7 mps 701 mmHg 85%

    Day after tomorrow, 27 February, Tuesday

    Time Temperature Precipitation Wind Pressure Humidity
    00:00 -14°C° 0.2 mm 7 mps 701 mmHg 85%
    01:00 -14°C° 0.2 mm 7 mps 701 mmHg 86%
    02:00 -15°C° 0.2 mm 6 mps 701 mmHg 86%
    03:00 -15°C° 0.2 mm 6 mps 701 mmHg 86%
    04:00 -15°C° 0.2 mm 6 mps 701 mmHg 87%
    05:00 -15°C° 0.2 mm 6 mps 701 mmHg 86%
    06:00 -15°C° 0.2 mm 6 mps 701 mmHg 86%
    07:00 -15°C° 0.2 mm 5 mps 701 mmHg 86%
    08:00 -14°C° 0.1 mm 5 mps 702 mmHg 84%
    09:00 -13°C° 0.1 mm 5 mps 702 mmHg 83%
    10:00 -13°C° 0.1 mm 5 mps 703 mmHg 81%
    11:00 -12°C° 0.1 mm 5 mps 703 mmHg 80%
    12:00 -11°C° 0.1 mm 4 mps 703 mmHg 79%
    13:00 -10°C° 0.1 mm 4 mps 703 mmHg 78%
    14:00 -10°C° 0 mm 4 mps 703 mmHg 79%
    15:00 -9°C° 0 mm 3 mps 703 mmHg 79%
    16:00 -9°C° 0 mm 3 mps 704 mmHg 80%
    17:00 -10°C° 0 mm 3 mps 704 mmHg 82%
    18:00 -12°C° 0 mm 3 mps 704 mmHg 85%
    19:00 -14°C° 0 mm 3 mps 704 mmHg 87%
    20:00 -14°C° 0 mm 3 mps 705 mmHg 88%
    21:00 -15°C° 0 mm 3 mps 705 mmHg 88%
    22:00 -15°C° 0 mm 3 mps 705 mmHg 88%
    23:00 -16°C° 0 mm 3 mps 705 mmHg 87%

    28 February, Wednesday

    Time Temperature Precipitation Wind Pressure Humidity
    00:00 -16°C° 0 mm 3 mps 705 mmHg 87%
    01:00 -16°C° 0 mm 3 mps 705 mmHg 87%
    02:00 -16°C° 0 mm 3 mps 705 mmHg 87%
    03:00 -17°C° 0 mm 3 mps 706 mmHg 87%
    04:00 -18°C° 0 mm 4 mps 706 mmHg 86%
    05:00 -18°C° 0 mm 4 mps 706 mmHg 86%
    06:00 -18°C° 0 mm 4 mps 706 mmHg 86%
    07:00 -18°C° 0 mm 4 mps 707 mmHg 86%
    08:00 -16°C° 0 mm 4 mps 707 mmHg 83%
    09:00 -15°C° 0 mm 4 mps 708 mmHg 81%
    10:00 -12°C° 0 mm 4 mps 708 mmHg 78%
    11:00 -11°C° 0 mm 4 mps 709 mmHg 78%
    12:00 -10°C° 0 mm 4 mps 709 mmHg 77%
    13:00 -8°C° 0 mm 3 mps 709 mmHg 76%
    14:00 -8°C° 0 mm 3 mps 709 mmHg 77%
    15:00 -9°C° 0 mm 3 mps 709 mmHg 78%
    16:00 -9°C° 0 mm 3 mps 709 mmHg 79%
    17:00 -10°C° 0 mm 3 mps 710 mmHg 81%
    18:00 -13°C° 0 mm 3 mps 710 mmHg 84%
    19:00 -14°C° 0 mm 3 mps 710 mmHg 87%
    20:00 -15°C° 0 mm 3 mps 710 mmHg 86%
    21:00 -15°C° 0 mm 3 mps 710 mmHg 86%
    22:00 -16°C° 0 mm 3 mps 711 mmHg 85%
    23:00 -15°C° 0 mm 2 mps 711 mmHg 85%

    1 March, Thursday

    Time Temperature Precipitation Wind Pressure Humidity
    00:00 -15°C° 0 mm 2 mps 711 mmHg 84%
    01:00 -15°C° 0 mm 2 mps 710 mmHg 84%
    02:00 -15°C° 0 mm 2 mps 710 mmHg 83%
    03:00 -15°C° 0 mm 2 mps 710 mmHg 81%
    04:00 -14°C° 0 mm 2 mps 709 mmHg 80%
    05:00 -14°C° 0 mm 2 mps 709 mmHg 77%
    06:00 -13°C° 0 mm 2 mps 709 mmHg 75%
    07:00 -13°C° 0 mm 2 mps 709 mmHg 72%
    08:00 -9°C° 0 mm 2 mps 709 mmHg 71%
    09:00 -7°C° 0 mm 2 mps 709 mmHg 70%
    10:00 -5°C° 0 mm 2 mps 709 mmHg 69%
    11:00 -5°C° 0.1 mm 3 mps 709 mmHg 72%
    12:00 -4°C° 0.1 mm 3 mps 708 mmHg 74%
    13:00 -3°C° 0.1 mm 4 mps 708 mmHg 77%
    14:00 -3°C° 0.2 mm 4 mps 707 mmHg 81%
    15:00 -3°C° 0.2 mm 4 mps 707 mmHg 84%
    16:00 -3°C° 0.2 mm 4 mps 706 mmHg 88%
    17:00 -3°C° 0.7 mm 4 mps 706 mmHg 90%
    18:00 -3°C° 0.7 mm 4 mps 706 mmHg 92%
    19:00 -4°C° 0.7 mm 4 mps 705 mmHg 94%
    20:00 -4°C° 0.8 mm 4 mps 705 mmHg 94%
    21:00 -4°C° 0.8 mm 4 mps 705 mmHg 95%
    22:00 -4°C° 0.8 mm 4 mps 704 mmHg 95%
    23:00 -3°C° 0.9 mm 4 mps 704 mmHg 95%

    2 March, Friday

    Time Temperature Precipitation Wind Pressure Humidity
    00:00 -3°C° 0.9 mm 4 mps 703 mmHg 96%
    01:00 -3°C° 0.9 mm 4 mps 703 mmHg 96%
    02:00 -3°C° 1.1 mm 4 mps 702 mmHg 96%
    03:00 -2°C° 1.1 mm 3 mps 702 mmHg 96%
    04:00 -2°C° 1.1 mm 3 mps 702 mmHg 96%
    05:00 -2°C° 0.7 mm 3 mps 701 mmHg 96%
    06:00 -2°C° 0.7 mm 3 mps 701 mmHg 96%
    07:00 -2°C° 0.7 mm 3 mps 701 mmHg 96%
    08:00 -2°C° 0.2 mm 3 mps 701 mmHg 96%
    09:00 -1°C° 0.2 mm 3 mps 702 mmHg 95%
    10:00 -1°C° 0.2 mm 3 mps 702 mmHg 94%
    11:00 -1°C° 0.1 mm 3 mps 702 mmHg 95%
    12:00 +1°C° 0.1 mm 2 mps 702 mmHg 95%
    13:00 +1°C° 0.1 mm 2 mps 702 mmHg 96%
    14:00 +1°C° 0 mm 2 mps 701 mmHg 95%
    15:00 +2°C° 0 mm 2 mps 701 mmHg 95%
    16:00 +2°C° 0 mm 2 mps 701 mmHg 95%
    17:00 +2°C° 0 mm 2 mps 701 mmHg 95%
    18:00 +1°C° 0 mm 2 mps 702 mmHg 95%
    19:00 +1°C° 0 mm 2 mps 702 mmHg 95%
    20:00 +2°C° 0 mm 1 mps 702 mmHg 95%
    21:00 +2°C° 0 mm 1 mps 702 mmHg 94%
    22:00 +2°C° 0 mm 1 mps 702 mmHg 94%
    23:00 +2°C° 0 mm 1 mps 702 mmHg 95%
    Show more